| time (UTC) | temp C | wind direction | speed KPH | gust KPH | rain 1hr cm | rain 24hr cm | rain mn cm | humidity % | barometer mb |
| 20260504020204 | 19 | 347 | 9.7 | 12.9 | 0.00 | 0.00 | 0.00 | 56 | 1009.9 |
| 20260504014704 | 18 | 0 | 14.5 | 19.3 | 0.00 | 0.00 | 0.00 | 58 | 1009.9 |
| 20260504013204 | 18 | 355 | 19.3 | 24.1 | 0.00 | 0.00 | 0.00 | 56 | 1009.9 |
| 20260504011704 | 18 | 59 | 16.1 | 24.1 | 0.00 | 0.00 | 0.00 | 58 | 1009.9 |
| 20260504010204 | 18 | 336 | 6.4 | 12.9 | 0.00 | 0.00 | 0.00 | 60 | 1010.2 |
| 20260504004704 | 17 | 42 | 4.8 | 6.4 | 0.00 | 0.00 | 0.00 | 63 | 1010.2 |
| 20260504003204 | 18 | 12 | 11.3 | 14.5 | 0.00 | 0.00 | 0.00 | 61 | 1010.5 |
| 20260504001704 | 18 | 336 | 12.9 | 17.7 | 0.00 | 0.00 | 0.00 | 61 | 1010.5 |
| 20260504000204 | 17 | 342 | 8.0 | 11.3 | 0.00 | 0.00 | 0.00 | 62 | 1010.2 |
| 20260503234704 | 17 | 294 | 8.0 | 12.9 | 0.00 | 0.00 | 0.00 | 62 | 1010.5 |
| 20260503233204 | 17 | 354 | 11.3 | 14.5 | 0.00 | 0.00 | 0.00 | 62 | 1010.5 |
| 20260503231703 | 16 | 342 | 8.0 | 11.3 | 0.00 | 0.00 | 0.00 | 66 | 1010.5 |
| 20260503230203 | 16 | 7 | 4.8 | 9.7 | 0.00 | 0.00 | 0.00 | 67 | 1010.5 |
| 20260503224703 | 16 | 17 | 6.4 | 14.5 | 0.00 | 0.00 | 0.00 | 68 | 1010.5 |
| 20260503223203 | 15 | 346 | 3.2 | 4.8 | 0.00 | 0.00 | 0.00 | 69 | 1010.9 |
| 20260503221703 | 15 | 306 | 6.4 | 9.7 | 0.00 | 0.00 | 0.00 | 69 | 1010.9 |
| 20260503220203 | 15 | 1 | 6.4 | 9.7 | 0.00 | 0.00 | 0.00 | 70 | 1010.9 |
| 20260503214703 | 14 | 333 | 9.7 | 12.9 | 0.00 | 0.00 | 0.00 | 70 | 1010.9 |
| 20260503213203 | 14 | 6 | 4.8 | 6.4 | 0.00 | 0.00 | 0.00 | 71 | 1010.5 |
| 20260503211704 | 14 | 337 | 9.7 | 12.9 | 0.00 | 0.00 | 0.00 | 71 | 1010.5 |
| 20260503210204 | 14 | 358 | 3.2 | 3.2 | 0.00 | 0.00 | 0.00 | 71 | 1010.5 |
| 20260503204704 | 13 | 355 | 6.4 | 6.4 | 0.00 | 0.00 | 0.00 | 73 | 1010.5 |
| 20260503203203 | 13 | 319 | 4.8 | 6.4 | 0.00 | 0.00 | 0.00 | 74 | 1010.2 |
| 20260503201704 | 13 | 338 | 1.6 | 3.2 | 0.00 | 0.00 | 0.00 | 74 | 1010.2 |
| 20260503200204 | 13 | 352 | 3.2 | 4.8 | 0.00 | 0.00 | 0.00 | 73 | 1010.5 |
| 20260503194704 | 13 | 346 | 1.6 | 3.2 | 0.00 | 0.00 | 0.00 | 73 | 1010.2 |
| 20260503193204 | 13 | 344 | 4.8 | 6.4 | 0.00 | 0.00 | 0.00 | 74 | 1010.5 |
| 20260503191703 | 13 | 354 | 3.2 | 3.2 | 0.00 | 0.00 | 0.00 | 74 | 1010.9 |
| 20260503190203 | 13 | 343 | 6.4 | 9.7 | 0.00 | 0.00 | 0.00 | 74 | 1010.9 |
| 20260503184704 | 13 | 34 | 6.4 | 9.7 | 0.00 | 0.00 | 0.00 | 75 | 1010.9 |
| 20260503183204 | 13 | 340 | 0.0 | 0.0 | 0.00 | 0.00 | 0.00 | 76 | 1010.9 |
| 20260503181703 | 13 | 353 | 8.0 | 11.3 | 0.00 | 0.00 | 0.00 | 78 | 1010.9 |
| 20260503180203 | 13 | 352 | 4.8 | 4.8 | 0.00 | 0.00 | 0.00 | 79 | 1011.2 |
| 20260503174703 | 13 | 344 | 4.8 | 4.8 | 0.00 | 0.00 | 0.00 | 79 | 1011.2 |
| 20260503173203 | 13 | 359 | 1.6 | 3.2 | 0.00 | 0.00 | 0.00 | 79 | 1011.5 |
| 20260503171704 | 13 | 327 | 4.8 | 6.4 | 0.00 | 0.00 | 0.00 | 80 | 1011.2 |
| 20260503170204 | 13 | 0 | 4.8 | 4.8 | 0.00 | 0.00 | 0.00 | 79 | 1011.5 |
| 20260503160203 | 13 | 334 | 3.2 | 3.2 | 0.00 | 0.00 | 0.00 | 80 | 1011.5 |
| 20260503150204 | 13 | 11 | 3.2 | 4.8 | 0.00 | 0.00 | 0.00 | 80 | 1011.5 |
| 20260503140204 | 14 | 53 | 3.2 | 3.2 | 0.00 | 0.00 | 0.00 | 79 | 1011.9 |
| 20260503130203 | 14 | 329 | 4.8 | 4.8 | 0.00 | 0.00 | 1.27 | 79 | 1011.9 |
| 20260503120204 | 15 | 352 | 3.2 | 4.8 | 0.00 | 0.00 | 1.27 | 76 | 1012.2 |
| 20260503110204 | 14 | 348 | 1.6 | 1.6 | 0.00 | 0.00 | 1.27 | 77 | 1012.2 |
| 20260503100204 | 14 | 347 | 3.2 | 3.2 | 0.00 | 0.00 | 1.27 | 78 | 1012.2 |
| 20260503090203 | 14 | 356 | 1.6 | 1.6 | 0.00 | 0.00 | 1.27 | 79 | 1011.9 |
| 20260503080204 | 15 | 335 | 0.0 | 0.0 | 0.00 | 0.00 | 1.27 | 85 | 1010.5 |
| 20260503071703 | 17 | 323 | 3.2 | 4.8 | 0.00 | 0.00 | 1.27 | 78 | 1009.9 |
| 20260503070203 | 17 | 324 | 6.4 | 6.4 | 0.00 | 0.00 | 1.27 | 77 | 1009.9 |
| 20260503060204 | 16 | 323 | 3.2 | 3.2 | 0.00 | 0.00 | 1.27 | 86 | 1009.9 |
| 20260503054704 | 16 | 342 | 6.4 | 6.4 | 0.05 | 0.00 | 1.27 | 85 | 1009.9 |
| 20260503053204 | 17 | 9 | 6.4 | 9.7 | 0.03 | 0.00 | 1.24 | 86 | 1009.9 |
| 20260503051704 | 16 | 327 | 4.8 | 6.4 | 0.03 | 0.00 | 1.24 | 87 | 1009.9 |
| 20260503050204 | 18 | 272 | 9.7 | 11.3 | 0.03 | 0.00 | 1.24 | 88 | 1009.9 |
| 20260503044704 | 18 | 11 | 6.4 | 11.3 | 0.05 | 0.00 | 1.04 | 84 | 1009.5 |
| 20260503043204 | 20 | 316 | 8.0 | 11.3 | 0.00 | 0.00 | 0.99 | 76 | 1009.2 |
| 20260503041703 | 21 | 343 | 6.4 | 6.4 | 0.00 | 0.00 | 0.99 | 73 | 1009.2 |
| 20260503040203 | 20 | 259 | 12.9 | 19.3 | 0.00 | 0.00 | 0.99 | 75 | 1009.2 |
| 20260503034703 | 20 | 341 | 9.7 | 12.9 | 0.00 | 0.00 | 0.99 | 75 | 1009.2 |
| 20260503033204 | 19 | 256 | 14.5 | 17.7 | 0.00 | 0.00 | 0.99 | 77 | 1009.5 |
| 20260503031704 | 19 | 0 | 8.0 | 11.3 | 0.00 | 0.00 | 0.99 | 79 | 1009.5 |
| 20260503030204 | 20 | 349 | 11.3 | 12.9 | 0.00 | 0.00 | 0.99 | 77 | 1009.5 |
| 20260503024704 | 20 | 5 | 12.9 | 19.3 | 0.03 | 0.00 | 0.99 | 75 | 1009.9 |
| 20260503023203 | 20 | 198 | 9.7 | 17.7 | 0.03 | 0.00 | 0.99 | 80 | 1009.5 |
| 20260503021704 | 18 | 42 | 8.0 | 11.3 | 0.03 | 0.00 | 0.99 | 84 | 1009.5 |